FW8113 Weather Reports


Display with metric or nautical units.
time (UTC)temp
F
wind
direction
speed
MPH
gust
MPH
rain 1hr
in
rain 24hr
in
rain mn
in
humidity
%
barometer
mb
20260506051330 57 114 0.0 0.0 0.00 0.00 0.00 92 1009.0
20260506050828 57 117 0.0 0.0 0.00 0.00 0.00 92 1009.0
20260506050325 57 110 0.0 0.0 0.00 0.00 0.00 91 1009.0
20260506044815 58 110 0.0 0.0 0.00 0.00 0.00 91 1009.3
20260506044314 58 107 0.0 0.0 0.00 0.00 0.00 91 1009.3
20260506043810 58 104 0.0 0.0 0.00 0.00 0.00 90 1009.0
20260506043308 58 111 0.0 0.0 0.00 0.00 0.00 90 1009.0
20260506042806 58 104 0.0 0.0 0.00 0.00 0.00 90 1009.0
20260506042305 58 101 0.0 0.0 0.00 0.00 0.00 90 1009.3
20260506041803 58 131 0.0 0.0 0.00 0.00 0.00 90 1009.0
20260506041259 58 123 0.0 0.0 0.00 0.00 0.00 91 1009.0
20260506040757 58 115 0.0 0.0 0.00 0.00 0.00 91 1009.0
20260506040254 58 112 0.0 0.0 0.00 0.00 0.00 91 1009.0
20260506035750 58 105 0.0 0.0 0.00 0.09 0.09 92 1009.0
20260506035247 58 109 0.0 0.0 0.00 0.09 0.09 92 1009.0
20260506034744 58 100 2.0 3.0 0.00 0.09 0.09 93 1009.0
20260506034242 59 110 0.0 0.0 0.00 0.09 0.09 93 1008.6
20260506033738 60 26 3.0 5.0 0.00 0.09 0.09 94 1008.6
20260506033236 61 162 2.0 3.0 0.00 0.09 0.09 94 1008.3
20260506032732 61 114 1.0 2.0 0.00 0.09 0.09 94 1008.3
20260506032229 62 102 0.0 0.0 0.00 0.09 0.09 94 1008.3
20260506031726 62 115 0.0 0.0 0.00 0.09 0.09 94 1008.3
20260506031223 62 104 0.0 0.0 0.00 0.09 0.09 94 1008.0
20260506030722 62 116 0.0 0.0 0.00 0.09 0.09 94 1008.3
20260506030219 62 94 0.0 0.0 0.00 0.09 0.09 94 1008.0
20260506025715 62 82 0.0 2.0 0.06 0.09 0.09 93 1008.3
20260506025212 63 99 0.0 0.0 0.05 0.08 0.08 93 1008.6
20260506024709 63 116 0.0 0.0 0.01 0.04 0.04 93 1009.0
20260506024205 63 111 0.0 0.0 0.00 0.03 0.03 93 1008.0
20260506023702 63 112 0.0 0.0 0.00 0.03 0.03 93 1008.0
20260506023159 63 103 0.0 0.0 0.00 0.03 0.03 92 1008.0
20260506022656 63 105 0.0 0.0 0.00 0.03 0.03 92 1008.0
20260506022153 63 106 0.0 0.0 0.00 0.03 0.03 92 1008.0
20260506021651 63 106 0.0 0.0 0.00 0.03 0.03 92 1008.0
20260506021148 63 106 0.0 0.0 0.00 0.03 0.03 92 1008.0
20260506020645 63 98 0.0 0.0 0.00 0.03 0.03 91 1008.0
20260506020143 63 95 0.0 0.0 0.00 0.03 0.03 91 1008.0
20260506015640 63 103 0.0 0.0 0.01 0.03 0.03 91 1007.6
20260506015137 63 106 0.0 0.0 0.01 0.03 0.03 91 1007.6
20260506014635 63 104 0.0 0.0 0.01 0.03 0.03 90 1007.6
20260506014130 63 104 0.0 0.0 0.01 0.03 0.03 90 1007.6
20260506013629 64 101 0.0 0.0 0.01 0.03 0.03 90 1008.0
20260506013125 64 106 0.0 0.0 0.01 0.03 0.03 89 1007.6
20260506012621 64 106 0.0 0.0 0.00 0.02 0.02 89 1007.6
20260506012118 64 107 0.0 0.0 0.00 0.02 0.02 89 1007.6
20260506011616 64 106 0.0 0.0 0.00 0.02 0.02 89 1007.6
20260506011112 64 106 0.0 0.0 0.00 0.02 0.02 89 1007.6
20260506010606 64 105 0.0 0.0 0.00 0.02 0.02 89 1007.3
20260506005559 64 105 0.0 0.0 0.00 0.02 0.02 89 1007.6
20260506005055 64 115 0.0 0.0 0.00 0.02 0.02 89 1007.3
20260506004552 64 98 0.0 0.0 0.00 0.02 0.02 89 1007.6
20260506004049 64 116 0.0 0.0 0.00 0.02 0.02 89 1007.3
20260506003545 64 105 0.0 0.0 0.00 0.02 0.02 89 1007.3
20260506003042 64 105 0.0 0.0 0.00 0.02 0.02 89 1007.3
20260506002537 64 105 0.0 0.0 0.00 0.02 0.02 89 1007.3
20260506002034 64 103 0.0 0.0 0.00 0.02 0.02 88 1006.9
20260506001530 64 105 0.0 0.0 0.00 0.02 0.02 88 1006.6
20260506001027 65 104 0.0 0.0 0.00 0.02 0.02 88 1006.6
20260506000525 65 98 0.0 0.0 0.00 0.02 0.02 88 1006.6
20260506000022 65 98 0.0 0.0 0.00 0.02 0.02 88 1006.6
20260505235520 65 106 0.0 0.0 0.00 0.02 0.02 87 1006.6
20260505235016 65 106 0.0 0.0 0.00 0.02 0.02 87 1006.3
20260505234514 65 108 0.0 0.0 0.00 0.02 0.02 86 1006.3
20260505234010 65 108 0.0 0.0 0.00 0.02 0.02 86 1006.6
20260505233508 65 109 0.0 0.0 0.00 0.02 0.02 86 1006.3
20260505233005 65 106 0.0 0.0 0.00 0.02 0.02 87 1006.3
20260505232503 65 106 0.0 0.0 0.00 0.02 0.02 87 1006.3
20260505232000 65 105 0.0 0.0 0.00 0.02 0.02 86 1005.9
20260505231457 65 105 0.0 0.0 0.00 0.02 0.02 86 1005.9
20260505230955 65 105 0.0 0.0 0.00 0.02 0.02 86 1005.9
20260505230453 65 112 0.0 0.0 0.00 0.02 0.02 86 1006.3
20260505225949 65 106 0.0 0.0 0.00 0.02 0.02 85 1005.9
20260505225446 65 106 0.0 0.0 0.00 0.02 0.02 85 1006.3
20260505224942 65 106 0.0 0.0 0.00 0.02 0.02 84 1006.3
20260505224439 65 106 0.0 0.0 0.00 0.02 0.02 82 1006.3
20260505223936 66 106 0.0 0.0 0.00 0.02 0.02 81 1006.3
20260505223433 66 112 0.0 0.0 0.00 0.02 0.02 79 1005.9
20260505222929 66 116 0.0 0.0 0.00 0.02 0.02 79 1005.9
20260505222426 66 113 0.0 2.0 0.00 0.02 0.02 80 1006.3
20260505221922 66 105 0.0 0.0 0.00 0.02 0.02 80 1006.3
20260505221419 66 74 7.0 10.0 0.00 0.02 0.02 79 1006.3
20260505220916 66 172 3.0 3.0 0.00 0.02 0.02 79 1006.3
20260505220413 66 121 3.0 5.0 0.00 0.02 0.02 79 1006.3
20260505215911 67 105 0.0 0.0 0.02 0.02 0.02 77 1006.3
20260505215409 68 52 1.0 3.0 0.02 0.02 0.02 75 1006.3
20260505214907 69 98 0.0 0.0 0.02 0.02 0.02 73 1006.3
20260505214404 71 191 3.0 3.0 0.01 0.01 0.01 65 1005.9
20260505213901 72 225 3.0 3.0 0.00 0.00 0.00 60 1006.3
20260505213359 73 78 2.0 3.0 0.00 0.00 0.00 57 1006.3
20260505212854 74 103 6.0 9.0 0.00 0.00 0.00 55 1005.3
20260505212352 76 119 0.0 2.0 0.00 0.00 0.00 53 1004.9
20260505211848 79 81 5.0 7.0 0.00 0.00 0.00 45 1004.9
20260505211346 80 119 0.0 0.0 0.00 0.00 0.00 32 1004.2
20260505210842 80 119 0.0 0.0 0.00 0.00 0.00 31 1004.2
20260505210339 81 104 0.0 0.0 0.00 0.00 0.00 29 1003.6
20260505205835 81 119 0.0 0.0 0.00 0.00 0.00 29 1003.6
20260505205334 81 108 0.0 0.0 0.00 0.00 0.00 29 1003.6
20260505204830 82 132 0.0 0.0 0.00 0.00 0.00 29 1003.2
20260505204328 82 106 3.0 5.0 0.00 0.00 0.00 29 1003.6
20260505203826 82 123 1.0 2.0 0.00 0.00 0.00 29 1003.2
20260505203322 82 103 0.0 0.0 0.00 0.00 0.00 30 1003.2
20260505202818 82 279 3.0 5.0 0.00 0.00 0.00 30 1003.2
20260505202314 82 153 2.0 3.0 0.00 0.00 0.00 29 1003.2
20260505201811 82 154 1.0 2.0 0.00 0.00 0.00 30 1003.2
20260505201309 83 74 0.0 2.0 0.00 0.00 0.00 30 1003.2
20260505200807 83 123 1.0 2.0 0.00 0.00 0.00 31 1003.2
20260505200304 83 171 3.0 5.0 0.00 0.00 0.00 32 1003.2
20260505195759 83 74 2.0 5.0 0.00 0.00 0.00 32 1003.6
20260505195257 84 133 1.0 2.0 0.00 0.00 0.00 33 1003.6
20260505194753 84 169 0.0 0.0 0.00 0.00 0.00 32 1003.2
20260505194250 84 214 4.0 5.0 0.00 0.00 0.00 34 1003.2
20260505193746 84 203 4.0 5.0 0.00 0.00 0.00 34 1003.6
20260505193244 85 208 6.0 14.0 0.00 0.00 0.00 32 1003.6
20260505192742 86 111 1.0 2.0 0.00 0.00 0.00 39 1003.6
20260505192239 85 112 1.0 2.0 0.00 0.00 0.00 39 1003.6
20260505191737 84 148 0.0 2.0 0.00 0.00 0.00 39 1003.6
20260505191235 83 42 1.0 3.0 0.00 0.00 0.00 40 1003.6
20260505190731 83 113 3.0 5.0 0.00 0.00 0.00 42 1003.6
20260505190231 84 165 3.0 3.0 0.00 0.00 0.00 42 1003.6
20260505185728 83 147 2.0 3.0 0.00 0.00 0.00 42 1003.6
20260505185225 83 143 1.0 2.0 0.00 0.00 0.00 41 1003.6
20260505184720 83 80 1.0 2.0 0.00 0.00 0.00 40 1003.9
20260505184218 83 88 0.0 0.0 0.00 0.00 0.00 42 1003.9
20260505183715 82 66 3.0 3.0 0.00 0.00 0.00 43 1003.6
20260505183213 82 267 1.0 3.0 0.00 0.00 0.00 43 1003.9
20260505182708 82 117 2.0 2.0 0.00 0.00 0.00 43 1003.9
20260505182206 82 266 2.0 3.0 0.00 0.00 0.00 44 1003.9
20260505181702 82 137 0.0 2.0 0.00 0.00 0.00 43 1003.9
20260505181200 82 213 6.0 9.0 0.00 0.00 0.00 41 1003.9
20260505180655 82 149 0.0 2.0 0.00 0.00 0.00 45 1004.2
20260505180153 83 109 1.0 2.0 0.00 0.00 0.00 43 1004.2
20260505175649 82 153 2.0 3.0 0.00 0.00 0.00 43 1003.9
20260505175145 81 151 3.0 5.0 0.00 0.00 0.00 43 1004.2
20260505174642 80 157 7.0 10.0 0.00 0.00 0.00 44 1004.6
20260505174138 80 56 5.0 9.0 0.00 0.00 0.00 45 1004.2
20260505173635 80 127 4.0 9.0 0.00 0.00 0.00 45 1004.6
20260505173132 80 105 1.0 2.0 0.00 0.00 0.00 46 1004.9
20260505172629 80 165 3.0 5.0 0.00 0.00 0.00 46 1004.6
20260505172126 80 118 2.0 3.0 0.00 0.00 0.00 44 1004.6
20260505171620 80 180 1.0 2.0 0.00 0.00 0.00 44 1004.6
20260505171118 82 176 2.0 3.0 0.00 0.00 0.00 45 1004.6
20260505170615 82 146 1.0 2.0 0.00 0.00 0.00 44 1004.9
20260505170111 82 132 2.0 3.0 0.00 0.00 0.00 42 1004.9
20260505165606 83 192 3.0 5.0 0.00 0.00 0.00 43 1004.9
20260505165102 82 135 0.0 2.0 0.00 0.00 0.00 44 1004.9
20260505164558 82 92 2.0 3.0 0.00 0.00 0.00 46 1005.6
20260505164056 82 114 2.0 3.0 0.00 0.00 0.00 45 1005.6
20260505163555 82 137 3.0 3.0 0.00 0.00 0.00 44 1005.6
20260505163051 82 91 1.0 3.0 0.00 0.00 0.00 43 1005.3
20260505162549 81 115 2.0 3.0 0.00 0.00 0.00 44 1005.6
20260505162047 81 123 2.0 3.0 0.00 0.00 0.00 43 1005.6
20260505161543 81 125 0.0 0.0 0.00 0.00 0.00 44 1005.6
20260505161041 81 116 1.0 2.0 0.00 0.00 0.00 44 1005.9
20260505160539 80 125 2.0 3.0 0.00 0.00 0.00 45 1005.6
20260505153015 79 121 0.0 2.0 0.00 0.00 0.00 45 1006.3
20260505152512 79 115 0.0 0.0 0.00 0.00 0.00 48 1006.6
20260505152008 78 196 2.0 3.0 0.00 0.00 0.00 46 1006.6
20260505151503 77 124 1.0 2.0 0.00 0.00 0.00 49 1006.6
20260505151000 76 72 1.0 2.0 0.00 0.00 0.00 51 1006.6
20260505150457 76 84 0.0 0.0 0.00 0.00 0.00 50 1006.6
20260505140427 68 89 0.0 0.0 0.00 0.00 0.00 58 1008.0
20260505124840 63 125 0.0 0.0 0.00 0.00 0.00 64 1008.0
20260505124337 62 121 1.0 2.0 0.00 0.00 0.00 64 1008.0
20260505123833 62 112 0.0 0.0 0.00 0.00 0.00 63 1008.0
20260505123330 62 106 0.0 0.0 0.00 0.00 0.00 64 1007.6
20260505122826 61 111 0.0 2.0 0.00 0.00 0.00 65 1008.0
20260505122324 61 61 0.0 0.0 0.00 0.00 0.00 65 1008.0
20260505121820 61 141 2.0 3.0 0.00 0.00 0.00 65 1008.0
20260505121317 60 99 0.0 2.0 0.00 0.00 0.00 65 1008.0
20260505120813 60 116 0.0 0.0 0.00 0.00 0.00 67 1008.0
20260505120309 60 169 3.0 3.0 0.00 0.00 0.00 66 1008.0
20260505115808 59 163 3.0 3.0 0.00 0.00 0.00 66 1008.0
20260505115306 59 114 2.0 3.0 0.00 0.00 0.00 68 1008.0
20260505114803 59 121 0.0 2.0 0.00 0.00 0.00 69 1008.0
20260505114300 58 124 0.0 0.0 0.00 0.00 0.00 68 1008.0
20260505113756 58 124 0.0 2.0 0.00 0.00 0.00 69 1008.0
20260505113252 58 83 0.0 0.0 0.00 0.00 0.00 70 1008.0
20260505112748 58 108 0.0 0.0 0.00 0.00 0.00 71 1008.0
20260505112246 58 120 0.0 0.0 0.00 0.00 0.00 71 1008.0
20260505111741 58 108 0.0 0.0 0.00 0.00 0.00 70 1007.6
20260505111237 57 111 0.0 0.0 0.00 0.00 0.00 72 1008.0
20260505110733 57 110 0.0 0.0 0.00 0.00 0.00 73 1008.0
20260505110231 56 101 0.0 0.0 0.00 0.00 0.00 73 1008.0
20260505102206 56 106 0.0 0.0 0.00 0.00 0.00 75 1007.6
20260505101705 56 112 0.0 2.0 0.00 0.00 0.00 75 1007.6
20260505101201 56 110 0.0 2.0 0.00 0.00 0.00 75 1007.6
20260505100657 57 106 0.0 2.0 0.00 0.00 0.00 74 1007.6
20260505100154 58 110 0.0 0.0 0.00 0.00 0.00 72 1007.6
20260505095649 58 105 0.0 0.0 0.00 0.00 0.00 66 1008.3
20260505095147 58 359 2.0 3.0 0.00 0.00 0.00 64 1008.3
20260505094643 57 30 0.0 0.0 0.00 0.00 0.00 64 1008.0
20260505094139 57 102 0.0 0.0 0.00 0.00 0.00 65 1007.6
20260505093636 58 101 0.0 0.0 0.00 0.00 0.00 64 1007.6
20260505093133 57 101 0.0 0.0 0.00 0.00 0.00 63 1007.3
20260505092630 57 100 0.0 0.0 0.00 0.00 0.00 64 1007.3
20260505092129 58 110 0.0 0.0 0.00 0.00 0.00 64 1007.3
20260505091625 58 108 0.0 0.0 0.00 0.00 0.00 64 1007.3
20260505091124 58 102 0.0 0.0 0.00 0.00 0.00 64 1007.3
20260505090621 58 96 0.0 0.0 0.00 0.00 0.00 63 1007.3
20260505090119 58 113 0.0 0.0 0.00 0.00 0.00 63 1007.3
20260505085616 58 97 0.0 0.0 0.00 0.00 0.00 63 1006.9
20260505085114 58 75 0.0 0.0 0.00 0.00 0.00 63 1007.3
20260505084612 58 104 0.0 0.0 0.00 0.00 0.00 63 1006.9
20260505084110 58 108 0.0 0.0 0.00 0.00 0.00 62 1006.9
20260505083607 59 101 0.0 0.0 0.00 0.00 0.00 62 1007.3
20260505083103 59 96 0.0 0.0 0.00 0.00 0.00 62 1007.3
20260505082559 59 119 0.0 0.0 0.00 0.00 0.00 62 1007.3
20260505082057 59 104 0.0 0.0 0.00 0.00 0.00 61 1007.3
20260505081553 59 110 0.0 0.0 0.00 0.00 0.00 61 1007.3
20260505081050 59 108 0.0 0.0 0.00 0.00 0.00 62 1007.3
20260505080546 59 66 1.0 2.0 0.00 0.00 0.00 61 1007.3
20260505080043 59 96 0.0 0.0 0.00 0.00 0.00 61 1007.3
20260505075539 59 110 1.0 2.0 0.00 0.00 0.00 61 1007.3
20260505075036 58 93 0.0 0.0 0.00 0.00 0.00 62 1007.3
20260505074533 59 100 0.0 0.0 0.00 0.00 0.00 61 1007.3
20260505074030 59 77 1.0 3.0 0.00 0.00 0.00 62 1007.3
20260505073527 59 48 0.0 2.0 0.00 0.00 0.00 61 1007.3
20260505073026 58 50 0.0 0.0 0.00 0.00 0.00 61 1007.3
20260505072521 58 95 0.0 0.0 0.00 0.00 0.00 61 1006.9
20260505072017 58 92 0.0 0.0 0.00 0.00 0.00 61 1007.3
20260505071513 58 116 0.0 0.0 0.00 0.00 0.00 61 1007.3
20260505071012 59 104 0.0 0.0 0.00 0.00 0.00 61 1006.9
20260505070509 59 187 3.0 3.0 0.00 0.00 0.00 60 1007.3
20260505070004 59 111 0.0 0.0 0.00 0.00 0.00 61 1007.6
20260505065500 59 124 0.0 0.0 0.00 0.00 0.00 60 1007.3
20260505064957 59 103 0.0 0.0 0.00 0.00 0.00 61 1006.9
20260505064454 59 67 1.0 3.0 0.00 0.00 0.00 60 1006.9
20260505063952 59 96 0.0 0.0 0.00 0.00 0.00 61 1007.3
20260505063449 59 90 0.0 0.0 0.00 0.00 0.00 60 1007.3
20260505062945 59 128 0.0 0.0 0.00 0.00 0.00 60 1007.3
20260505062442 59 104 0.0 0.0 0.00 0.00 0.00 61 1007.3
20260505061939 59 111 0.0 0.0 0.00 0.00 0.00 61 1007.3
20260505061437 59 100 0.0 0.0 0.00 0.00 0.00 60 1007.3
20260505060934 59 95 0.0 0.0 0.00 0.00 0.00 61 1007.3
20260505060431 59 89 0.0 0.0 0.00 0.00 0.00 60 1007.3
20260505055927 59 103 0.0 0.0 0.00 0.00 0.00 60 1007.6
20260505055424 59 102 0.0 0.0 0.00 0.00 0.00 60 1007.3
20260505054921 59 86 0.0 0.0 0.00 0.00 0.00 60 1007.6
20260505054418 59 76 0.0 0.0 0.00 0.00 0.00 59 1007.6
20260505053916 59 18 0.0 2.0 0.00 0.00 0.00 59 1007.6
20260505053413 59 124 0.0 2.0 0.00 0.00 0.00 59 1007.6
20260505052909 59 89 0.0 0.0 0.00 0.00 0.00 59 1007.6
20260505052406 60 84 0.0 0.0 0.00 0.00 0.00 59 1007.6
20260505051903 60 105 0.0 0.0 0.00 0.00 0.00 59 1007.3